KB1YTR-1 Weather Reports


Display with metric or nautical units.
time (UTC)temp
F
wind
direction
speed
MPH
gust
MPH
rain 1hr
in
rain 24hr
in
rain mn
in
humidity
%
barometer
mb
20260502234202 60 278 3.0 4.0 0.00 0.00 0.00 41 1008.6
20260502232752 60 289 1.0 6.0 0.00 0.00 0.00 40 1008.8
20260502231432 60 175 1.0 9.0 0.00 0.00 0.00 39 1008.8
20260502230052 61 267 2.0 6.0 0.00 0.00 0.00 39 1009.0
20260502224812 61 212 8.0 15.0 0.00 0.00 0.00 38 1009.1
20260502223612 62 264 2.0 15.0 0.00 0.00 0.00 38 1009.3
20260502222327 62 245 4.0 9.0 0.00 0.00 0.00 36 1009.4
20260502220837 62 296 7.0 17.0 0.00 0.00 0.00 36 1009.5
20260502215449 61 149 1.0 6.0 0.00 0.00 0.00 37 1009.5
20260502214058 62 234 1.0 13.0 0.00 0.00 0.00 35 1009.6
20260502212647 61 183 1.0 6.0 0.00 0.00 0.00 36 1009.8
20260502211357 61 287 15.0 15.0 0.00 0.00 0.00 35 1009.9
20260502210141 61 239 5.0 11.0 0.00 0.00 0.00 35 1010.2
20260502204732 60 273 3.0 10.0 0.00 0.00 0.00 35 1010.1
20260502203242 60 283 9.0 10.0 0.00 0.00 0.00 35 1010.9
20260502201912 61 255 4.0 14.0 0.00 0.00 0.00 34 1011.0
20260502200456 60 225 2.0 11.0 0.00 0.00 0.00 35 1011.2
20260502195027 60 181 3.0 8.0 0.00 0.00 0.00 35 1011.5
20260502193632 59 196 4.0 14.0 0.00 0.00 0.00 34 1011.6
20260502192332 59 313 2.0 8.0 0.00 0.00 0.00 34 1012.0
20260502190942 58 214 7.0 9.0 0.00 0.00 0.00 36 1012.1
20260502185727 58 196 3.0 7.0 0.00 0.00 0.00 36 1012.3
20260502184347 59 193 6.0 6.0 0.00 0.00 0.00 33 1012.4
20260502182914 57 206 3.0 12.0 0.00 0.00 0.00 36 1012.8
20260502181657 55 278 6.0 8.0 0.00 0.00 0.00 34 1013.3
20260502180222 56 274 3.0 6.0 0.00 0.00 0.00 34 1013.6
20260502164222 53 297 3.0 14.0 0.00 0.00 0.00 35 1014.5
20260502162742 53 278 5.0 8.0 0.00 0.00 0.00 37 1014.6
20260502161432 53 320 4.0 4.0 0.00 0.00 0.00 37 1014.6
20260502152152 52 335 6.0 12.0 0.00 0.00 0.00 39 1015.8
20260502150822 51 286 5.0 6.0 0.00 0.00 0.00 38 1015.7
20260502130747 44 292 2.0 4.0 0.00 0.00 0.00 51 1016.5
20260502130357 44 292 2.0 4.0 0.00 0.00 0.00 51 1016.5
20260502123646 40 278 3.0 3.0 0.00 0.00 0.00 56 1016.3
20260502122432 39 279 4.0 4.0 0.00 0.00 0.00 57 1016.5
20260502121003 37 286 1.0 5.0 0.00 0.00 0.00 59 1016.5
20260502115702 37 264 3.0 4.0 0.00 0.00 0.00 59 1016.6
20260502114304 36 278 3.0 4.0 0.00 0.00 0.00 60 1016.7
20260502112947 35 271 2.0 4.0 0.00 0.00 0.00 62 1016.7
20260502111527 34 263 2.0 3.0 0.00 0.00 0.00 62 1016.8
20260502110313 34 266 2.0 2.0 0.00 0.00 0.00 63 1016.5
20260502110232 34 266 2.0 2.0 0.00 0.00 0.00 63 1016.5
20260502105012 35 259 1.0 2.0 0.00 0.00 0.00 62 1016.6
20260502103537 35 286 1.0 3.0 0.00 0.00 0.00 61 1016.4
20260502102242 35 0 0.0 1.0 0.00 0.00 0.00 62 1016.5
20260502101027 35 249 1.0 2.0 0.00 0.00 0.00 61 1016.6
20260502091342 36 0 0.0 2.0 0.00 0.00 0.00 59 1016.7
20260502071407 35 0 0.0 2.0 0.00 0.00 0.00 60 1017.5
20260502070137 35 0 0.0 1.0 0.00 0.00 0.00 60 1017.5
20260502064802 36 0 0.0 2.0 0.00 0.00 0.00 59 1017.6
20260502063444 35 0 0.0 1.0 0.00 0.00 0.00 59 1017.6
20260502062233 36 308 1.0 1.0 0.00 0.00 0.00 58 1017.4
20260502060907 35 0 0.0 1.0 0.00 0.00 0.00 59 1017.5
20260502055602 35 0 0.0 1.0 0.00 0.00 0.00 59 1017.7
20260502054344 35 281 1.0 1.0 0.00 0.00 0.00 58 1017.5
20260502053032 35 0 0.0 0.0 0.00 0.00 0.00 58 1017.8
20260502051611 34 0 0.0 0.0 0.00 0.00 0.00 59 1017.8
20260502050343 35 238 1.0 1.0 0.00 0.00 0.00 58 1017.7
20260502045102 34 0 0.0 0.0 0.00 0.00 0.00 59 1017.6
20260502043616 35 0 0.0 0.0 0.00 0.00 0.00 57 1017.7
20260502042352 35 0 0.0 1.0 0.00 0.00 0.00 58 1017.6
20260502041044 35 0 0.0 1.0 0.00 0.00 0.00 58 1017.6
20260502035545 35 0 0.0 0.0 0.00 0.00 0.00 59 1017.7
20260502034132 35 120 1.0 1.0 0.00 0.00 0.00 58 1017.6
20260502032752 37 0 1.0 1.0 0.00 0.00 0.00 54 1017.8
20260502031333 37 75 1.0 1.0 0.00 0.00 0.00 54 1017.8
20260502025931 36 308 1.0 1.0 0.00 0.00 0.00 56 1017.7
20260502025859 36 308 1.0 1.0 0.00 0.00 0.00 56 1017.7
20260502024610 36 0 0.0 1.0 0.00 0.00 0.00 58 1018.0
20260502023242 37 0 0.0 1.0 0.00 0.00 0.00 55 1017.7
20260502021743 38 0 0.0 1.0 0.00 0.00 0.00 54 1017.6
20260502020255 37 0 0.0 2.0 0.00 0.00 0.00 55 1017.7
20260502014845 37 121 2.0 2.0 0.00 0.00 0.00 57 1017.3
20260502013452 39 66 2.0 2.0 0.00 0.00 0.00 55 1017.4
20260502012027 39 0 0.0 2.0 0.00 0.00 0.00 55 1017.4
20260502010807 39 0 0.0 2.0 0.00 0.00 0.00 57 1017.3
20260502005537 41 111 2.0 4.0 0.00 0.00 0.00 54 1017.1
20260502004207 40 0 0.0 1.0 0.00 0.00 0.00 54 1017.1
20260502002722 41 99 4.0 6.0 0.00 0.00 0.00 52 1017.2
20260502001232 42 125 2.0 2.0 0.00 0.00 0.00 52 1017.1
20260501235922 42 105 2.0 5.0 0.00 0.00 0.00 49 1017.0